カタログに戻る

FENGYUN 1C DEB

運用中SSO
NORAD 30411·DEBRIS·🇨🇳 China

打ち上げ May 10, 1999 から Taiyuan Satellite Launch Center

Loading…

次のパス (今後24時間)

TLE

最新Source: Space-Track

元期: Sep 14, 2026, 04:20 UTC

1 30411U 99025AEA 26257.18121086  .00001861  00000-0  10181-2 0  9992
2 30411  98.5692 159.4697 0124212  45.2542 315.8658 14.09231257998618

AllMySatでFENGYUN 1C DEBをリアルタイム追跡

Download on the App Store